Weather History for Nancy Ochey FAFB, France

Change the Weather History Date:

Friday, December 14, 2012

  Actual Average Record
Temperature  
Mean Temperature 42 °F -  
Max Temperature 48 °F 38 °F 51 °F (2003)
Min Temperature 37 °F 31 °F 15 °F (2001)
Degree Days  
Heating Degree Days 22    
Moisture  
Dew Point 41 °F    
Average Humidity 89    
Maximum Humidity 100    
Minimum Humidity 77    
Precipitation  
Precipitation 0.20 in - - ()
Sea Level Pressure  
Sea Level Pressure 29.54 in    
Wind  
Wind Speed 13 mph ()    
Max Wind Speed 28 mph    
Max Gust Speed 41 mph    
Visibility 6.2 miles    
Events Rain    
Averages and records for this station are not official NWS values.
T = Trace of Precipitation, MM = Missing Value Source: Averaged Metar Reports

Daily Weather History Graph

Daily Weather History Graph

Search for Another Location

Airport:

Trip Planner

Search our weather history database for the weather conditions in past years. The results will help you decide how hot, cold, wet, or windy it might be!

Date:

Astronomy

Dec. 14, 2012 Rise Set
Actual Time 8:21 AM CET 4:40 PM CET
Civil Twilight 7:44 AM CET 5:17 PM CET
Nautical Twilight 7:04 AM CET 5:57 PM CET
Astronomical Twilight 6:25 AM CET 6:36 PM CET
Moon 9:08 AM CET (12/14) 6:18 PM CET (12/14)
Length of Visible Light 9h 33m
Length of Day
8h 19m
New Moon, 2% of the Moon is Illuminated
Dec 14
New Moon
Dec 20
First Quarter
Dec 28
Full
Jan 5
Last Quarter
Jan 11
New

Hourly Weather History & Observations

Time (CET) Temp. Windchill Dew Point Humidity Pressure Visibility Wind Dir Wind Speed Gust Speed Precip Events Conditions
12:30 AM 37.4 °F 30.8 °F 35.6 °F 93% 29.71 in 6.2 mi South 9.2 mph - N/A   Overcast
1:00 AM 37.4 °F 32.1 °F 35.6 °F 93% 29.71 in 6.2 mi South 6.9 mph - N/A   Overcast
2:00 AM 39.2 °F 33.0 °F 37.4 °F 93% 29.71 in 6.2 mi South 9.2 mph - N/A   Overcast
2:30 AM 39.2 °F 33.0 °F 37.4 °F 93% 29.71 in 6.2 mi South 9.2 mph - N/A   Overcast
3:00 AM 39.2 °F 34.2 °F 37.4 °F 93% 29.68 in 6.2 mi SSE 6.9 mph - N/A   Overcast
3:30 AM 37.4 °F 30.8 °F 35.6 °F 93% 29.68 in 5.0 mi SSE 9.2 mph - N/A   Overcast
4:00 AM 37.4 °F 32.8 °F 37.4 °F 100% 29.68 in 6.2 mi SSE 5.8 mph - N/A   Overcast
4:30 AM 39.2 °F 34.2 °F 37.4 °F 93% 29.68 in 6.2 mi SSE 6.9 mph - N/A   Overcast
5:00 AM 39.2 °F 33.0 °F 37.4 °F 93% 29.65 in 6.2 mi South 9.2 mph - N/A   Overcast
5:30 AM 39.2 °F 32.5 °F 37.4 °F 93% 29.65 in 6.2 mi South 10.4 mph - N/A   Overcast
6:00 AM 39.2 °F 34.2 °F 37.4 °F 93% 29.65 in 6.2 mi SSE 6.9 mph - N/A   Overcast
6:30 AM 39.2 °F 33.0 °F 37.4 °F 93% 29.65 in 6.2 mi SSE 9.2 mph - N/A   Overcast
7:00 AM 39.2 °F 33.0 °F 37.4 °F 93% 29.62 in 6.2 mi SSE 9.2 mph - N/A   Overcast
7:30 AM 37.4 °F 30.8 °F 35.6 °F 93% 29.62 in 6.2 mi SSE 9.2 mph - N/A   Mostly Cloudy
8:00 AM 37.4 °F 30.8 °F 35.6 °F 93% 29.62 in 6.2 mi SSE 9.2 mph - N/A   Scattered Clouds
8:30 AM 39.2 °F 32.5 °F 35.6 °F 87% 29.59 in 6.2 mi SSE 10.4 mph - N/A   Mostly Cloudy
9:00 AM 39.2 °F 33.6 °F 37.4 °F 93% 29.59 in 6.2 mi SSE 8.1 mph - N/A   Overcast
9:30 AM 41.0 °F 33.9 °F 37.4 °F 87% 29.59 in 6.2 mi South 12.7 mph - N/A   Overcast
10:00 AM 42.8 °F 34.8 °F 37.4 °F 81% 29.59 in 6.2 mi South 17.3 mph - N/A   Overcast
10:30 AM 42.8 °F 34.8 °F 37.4 °F 81% 29.59 in 6.2 mi South 17.3 mph - N/A   Overcast
11:00 AM 42.8 °F 34.8 °F 39.2 °F 87% 29.59 in 6.2 mi South 17.3 mph - N/A   Overcast
11:30 AM 42.8 °F 35.1 °F 39.2 °F 87% 29.56 in 6.2 mi South 16.1 mph - N/A   Mostly Cloudy
12:00 PM 44.6 °F 37.2 °F 39.2 °F 81% 29.53 in 6.2 mi South 17.3 mph - N/A   Overcast
12:30 PM 44.6 °F 37.2 °F 39.2 °F 81% 29.53 in 6.2 mi South 17.3 mph - N/A   Mostly Cloudy
1:00 PM 44 °F - 39 °F 77% 29.54 in - South 19.6 mph - -   Clear
1:00 PM 44.6 °F 36.6 °F 39.2 °F 81% 29.50 in 6.2 mi South 19.6 mph 31.1 mph N/A   Overcast
1:30 PM 44.6 °F 36.4 °F 39.2 °F 81% 29.50 in 6.2 mi South 20.7 mph - N/A   Overcast
2:00 PM 44.6 °F 36.4 °F 41.0 °F 87% 29.47 in 6.2 mi South 20.7 mph - N/A   Overcast
2:30 PM 44.6 °F 36.6 °F 41.0 °F 87% 29.47 in 6.2 mi South 19.6 mph - N/A Rain Light Rain
3:00 PM 44.6 °F 36.6 °F 41.0 °F 87% 29.44 in 6.2 mi South 19.6 mph - N/A Rain Light Rain
3:30 PM 44.6 °F 36.4 °F 42.8 °F 93% 29.44 in 6.2 mi South 20.7 mph - N/A Rain Light Rain
4:00 PM 46.4 °F 38.5 °F 42.8 °F 87% 29.44 in 5.6 mi South 21.9 mph - N/A Rain Light Rain
4:30 PM 46.4 °F 37.9 °F 44.6 °F 93% 29.44 in 6.2 mi South 25.3 mph - N/A Rain Light Rain
5:00 PM 46.4 °F 37.7 °F 44.6 °F 93% 29.42 in 6.2 mi South 26.5 mph 40.3 mph N/A Rain Light Rain
5:30 PM 48.2 °F - 44.6 °F 87% 29.42 in 6.2 mi South 26.5 mph - N/A Rain Light Rain
6:00 PM 48.2 °F - 44.6 °F 87% 29.42 in 6.2 mi South 26.5 mph 41.4 mph N/A Rain Light Rain
6:30 PM 48.2 °F - 44.6 °F 87% 29.42 in 6.2 mi South 24.2 mph - N/A Rain Light Rain
7:00 PM 47 °F - 45 °F 88% 29.43 in 7 mi South 26.5 mph - - Rain Light Rain
7:00 PM 48.2 °F - 44.6 °F 87% 29.42 in 6.2 mi South 26.5 mph 40.3 mph N/A Rain Light Rain
7:30 PM 48.2 °F - 44.6 °F 87% 29.42 in 6.2 mi SSW 25.3 mph - N/A Rain Light Rain
8:00 PM 48.2 °F - 44.6 °F 87% 29.39 in 6.2 mi SSW 25.3 mph - N/A Rain Light Rain
8:30 PM 48.2 °F - 44.6 °F 87% 29.39 in 6.2 mi SSW 27.6 mph - N/A Rain Light Rain
9:00 PM 48.2 °F - 46.4 °F 93% 29.39 in 6.2 mi South 25.3 mph - N/A Rain Light Rain
9:30 PM 48.2 °F - 46.4 °F 93% 29.42 in 6.2 mi SSW 24.2 mph - N/A Rain Light Rain
10:00 PM 48.2 °F - 46.4 °F 93% 29.42 in 6.2 mi SSW 24.2 mph - N/A Rain Light Rain
10:30 PM 48.2 °F - 46.4 °F 93% 29.44 in 6.2 mi SSW 21.9 mph - N/A Rain Light Rain
11:00 PM 48.2 °F - 46.4 °F 93% 29.44 in 6.2 mi SSW 21.9 mph - N/A Rain Light Rain
11:30 PM 48.2 °F - 46.4 °F 93% 29.44 in 6.2 mi SSW 17.3 mph - N/A   Light Drizzle